Tracking 19562 objects as of 25-Mar-2019
HD Live streaming from Space Station
objects crossing your sky now

COSMOS 1390

Track COSMOS 1390 now!
10-day predictions
COSMOS 1390 is classified as:


NORAD ID: 13377
Int'l Code: 1982-073C
Perigee: 1,434.0 km
Apogee: 1,481.4 km
Inclination: 74.0 °
Period: 114.9 minutes
Semi major axis: 7828 km
RCS: 0.6906 m2 (medium)
Launch date: July 21, 1982
Source: Commonwealth of Independent States (former USSR) (CIS)
Launch site: PLESETSK MISSILE AND SPACE COMPLEX (PKMTR)
aabbcc
Your satellite tracking list
Your tracking list is empty




NASA's NSSDC Master Catalog

Two Line Element Set (TLE):
1 13377U 82073C   19083.66832394 -.00000011 +00000-0 +33587-4 0  9996
2 13377 074.0126 119.8548 0030281 025.9076 103.3033 12.53332138677950
Source of the keplerian elements: AFSPC